AirNav   Air Wisconsin Up To $57,000 Bonus
 
 1641 users online  

AL76 Mayfield (Private) Airport
Maplesville, Alabama, USA

GOING TO MAPLESVILLE?


FAA INFORMATION EFFECTIVE 20 JUNE 2019

Location

FAA Identifier: AL76
Lat/Long: 32-50-55.4530N / 086-52-11.9580W
32-50.924217N / 086-52.199300W
32.8487369 / -86.8699883
(estimated)
Elevation: 495 ft. / 151 m (estimated)
Variation: 00E (1985)
From city: 5 miles N of MAPLESVILLE, AL
Time zone: UTC -5 (UTC -6 during Standard Time)
Zip code: 36750

Airport Operations

Airport use: Private use. Permission required prior to landing
Activation date: 06/1987
Control tower: no
ARTCC: ATLANTA CENTER
FSS: ANNISTON FLIGHT SERVICE STATION
Attendance: UNATNDD
Wind indicator: yes
Segmented circle: no

Nearby radio navigation aids

VOR radial/distance  VOR name  Freq  Var
OKWr141/30.2BROOKWOOD VORTAC111.0000E

Airport Services

Runway Information

Runway 2/20

Dimensions: 3200 x 100 ft. / 975 x 30 m
Surface: turf
RUNWAY 2  RUNWAY 20
Traffic pattern: leftleft
Displaced threshold: 200 ft.no
Obstructions: none50 ft. trees, 4000 ft. from runway

Airport Ownership and Management from official FAA records

Ownership: Privately-owned
Owner: JEROME MAYFIELD
958 OLD RANDOLPH RD
MAPLESVILLE, AL 36750
Phone 251-424-0799
Manager: JEROME MAYFIELD
26699 MARTINIQUE DRIVE
ORANGE BEACH, AL 36561
Phone 251-424-0799

Airport Operational Statistics

Aircraft based on the field: 4
Single engine airplanes: 4
    

Additional Remarks

FOR CD CTC ATLANTA ARTCC AT 770-210-7692.

Instrument Procedures

There are no published instrument procedures at AL76.

Some nearby airports with instrument procedures:

0A8 - Bibb County Airport (12 nm NW)
02A - Chilton County Airport (13 nm E)
KEET - Shelby County Airport (20 nm N)
KEKY - Bessemer Airport (28 nm N)
1A9 - Prattville Airport - Grouby Field (31 nm SE)
 
Loc | Ops | Rwys | IFR | FBO | Links
Com | Nav | Svcs | Stats | Notes
Area around AL76 (Mayfield (Private) Airport)
 
Road maps at: MapQuest Bing Google
 
Aerial photo
No photo
 
Sectional chart

 
Airport distance calculator
Flying to Mayfield (Private) Airport? Find the distance to fly.

From to AL76

Sunrise and sunset
Times for 25-Jun-2019
 Local
(UTC-5)
 Zulu
(UTC)
Morning civil twilight05:1310:13
Sunrise05:4210:42
Sunset19:5800:58
Evening civil twilight20:2701:27

Current date and time
Zulu (UTC)  25-Jun-2019 17:08:56
Local (UTC-5)  25-Jun-2019 12:08:56
 
METAR
KEET 
21nm N 
251653Z AUTO 30004KT 10SM FEW035 29/21 A3010 RMK AO2 SLP184 T02890211
KEKY 
28nm N 
251656Z AUTO 00000KT 10SM SCT030 28/21 A3012 RMK AO2 SLP205 T02830211
K1A9 
31nm SE 
251655Z AUTO 27006KT 10SM CLR 30/22 A3008 RMK AO2 T03000221
KSEM 
31nm S 
251655Z AUTO 00000KT 10SM 30/21 A3008 RMK AO2
KA08 
33nm SW 
251655Z AUTO 00000KT 10SM CLR 32/21 A3007 RMK AO2 T03180213
KSCD 
34nm NE 
251655Z AUTO 27004KT 10SM SCT026 28/20 A3011 RMK AO2 T02840203
KMXF 
39nm SE 
251556Z AUTO 22004KT 10SM FEW024 30/23 A3008 RMK AO2 SLP187 T02990226
KMGM 
41nm SE 
251653Z 24007KT 10SM CLR 31/22 A3008 RMK AO2 SLP184 T03110222
TAF
KEET 
21nm N 
251129Z 2512/2612 00000KT P6SM SCT250 FM251400 25004KT P6SM SCT250 FM251800 29007KT P6SM FEW030 FM260100 23002KT P6SM SCT250
NOTAMs
Click for the latest NOTAMs
NOTAMs are issued by the DoD/FAA and will open in a separate window not controlled by AirNav.

 

 
 

Would you like to see your business listed on this page?

 If your business provides an interesting product or service to pilots, flight crews, aircraft, or users of the Mayfield (Private) Airport, you should consider listing it here.  To start the listing process, click on the button below
 
Add a business
 

Other Pages about Mayfield (Private) Airport

Update a link
 
Copyright © AirNav, LLC. All rights reserved. Privacy Policy  Contact